Location: Sungai Bunut
(2.6333°N, 113.7333°E)
Time: 16:20:34
(UTC+00:00)

Vanguard 3 - Pass Details

Date: 10 December 2023
Orbit: 508 x 3239 km, 33.3° (Epoch: 21 February)

Event Time Altitude Azimuth Distance (km) Brightness Sun altitude
Rises 05:59:37 0° 212° (SSW) 5,639 12.0 54.4°
Reaches altitude 10° 06:03:50 10° 200° (SSW) 5,022 11.9 53.6°
Maximum altitude 06:16:42 29° 145° (SE) 4,465 11.3 51.3°
Drops below altitude 10° 06:32:17 10° 93° (E) 6,165 11.4 48.4°
Sets 06:38:08 0° 83° (E) 7,090 11.6 47.3°
